Location: Conjunto Santa Maria
(19.9513°S, 43.9599°W)
Time: 13:42:37
(UTC+00:00)

Cosmos 158 Rocket - Pass Details

Date: 21 January 2021
Orbit: 698 x 794 km, 74.0° (Epoch: 03 March)

Event Time Altitude Azimuth Distance (km) Brightness Sun altitude
Rises 22:50:16 0° 353° (N) 3,272 7.1 -15.6°
Reaches altitude 10° 22:52:40 10° 355° (N) 2,344 6.3 -16.1°
Maximum altitude 22:57:59 69° 78° (ENE) 840 3.9 -17.2°
Drops below altitude 10° 23:03:14 10° 160° (SSE) 2,324 6.6 -18.3°
Sets 23:05:37 0° 162° (SSE) 3,242 7.4 -18.8°
